Location: Tuebingen alte Sternwarte
(48.5376°N, 9.0555°E)
Time: 02:43:41
(UTC+01:00)

N. Korean satellite - Visible Passes

Search period start: 22 November 2017 00:00
Search period end: 02 December 2017 00:00
Orbit: 460 x 514 km, 97.2° (Epoch: 21 November)

Date Brightness Start Highest point End Pass type
(mag) Time Alt. Az. Time Alt. Az. Time Alt. Az.
22 Nov 9.8 06:19:14 10° NE 06:21:50 18° E 06:24:26 10° SE visible
22 Nov 7.1 18:31:38 10° S 18:35:06 58° W 18:38:41 10° NNW visible
23 Nov 6.4 18:08:05 10° SSE 18:11:36 71° ENE 18:15:13 10° N visible
24 Nov 7.5 07:04:54 10° NNE 07:08:36 57° E 07:12:19 10° S visible
24 Nov 7.0 17:44:53 10° SE 17:48:11 37° ENE 17:51:33 10° N visible
24 Nov 9.5 19:19:27 10° SW 19:21:53 17° W 19:24:21 10° NW visible
25 Nov 8.8 06:41:39 10° NNE 06:45:02 31° E 06:48:24 10° SSE visible
25 Nov 7.8 17:22:04 10° ESE 17:24:50 22° ENE 17:27:40 10° NNE visible
25 Nov 8.5 18:55:01 10° SSW 18:58:12 31° W 19:01:28 10° NNW visible
26 Nov 9.8 06:18:46 10° NE 06:21:22 18° E 06:23:59 10° SE visible
26 Nov 7.1 18:31:06 10° S 18:34:36 59° W 18:38:13 10° NNW visible
27 Nov 6.4 18:07:33 10° SSE 18:11:05 71° ENE 18:14:44 10° N visible
28 Nov 7.5 07:04:23 10° NNE 07:08:07 57° E 07:11:49 10° S visible
28 Nov 7.1 17:44:19 10° SE 17:47:39 37° ENE 17:51:04 10° N visible
28 Nov 9.5 19:18:51 10° SW 19:21:20 18° W 19:23:52 10° NW visible
29 Nov 8.8 06:41:08 10° NNE 06:44:31 31° E 06:47:53 10° SSE visible
29 Nov 7.8 17:21:29 10° ESE 17:24:17 22° ENE 17:27:09 10° NNE visible
29 Nov 8.5 18:54:25 10° SSW 18:57:39 31° W 19:00:57 10° NNW visible
30 Nov 9.8 06:18:13 10° NE 06:20:50 18° E 06:23:26 10° SE visible
30 Nov 7.1 18:30:29 10° S 18:34:02 60° W 18:37:41 10° NNW visible
01 Dec 6.5 18:06:55 10° SSE 18:10:30 71° ENE 18:14:10 10° N visible
